Home   Weather   Ansfelden   Past weeks

Flag for Austria Past Weather in Ansfelden, Upper Austria, Austria — Yesterday and Last 2 Weeks

Now
18 °F

Passing clouds.


Feels Like: 8 °F
Forecast: 9 / 22 °F
Wind: 7 mph from East

Location: Linz / Hoersching-Flughafen

Current Time: Jan 20, 2017 at 3:11:00 am

Latest Report: Jan 20, 2017 at 2:00 am


Visibility: 4 mi

Pressure: 30.64 "Hg

Humidity: 78%

Dew Point: 12 °F

Location of AnsfeldenLocation

Past Weather in Ansfelden — Graph

°F

Ansfelden Temperature Yesterday

Maximum temperature yesterday: 24 °F (at 3:00 pm)
Minimum temperature yesterday: 15 °F (at 8:00 am)
Average temperature yesterday: 19 °F

High & Low Weather Summary for the Past Weeks

 TemperatureHumidityPressure
High40 °F (Jan 13, 11:00 am)98% (Jan 12, 8:00 pm)30.77 "Hg (Jan 12, 8:00 pm)
Low3 °F (Jan 7, 7:00 am)55% (Jan 13, 1:00 pm)29.44 "Hg (Jan 13, 4:00 am)
Average24 °F81%30.26 "Hg
* Reported Jan 5 2:00 am — Jan 20 2:00 am, Ansfelden, Weather by CustomWeather, © 2017

Note: Actual official high and low records may vary slightly from our data, if they occured in-between our weather recording intervals... More about our weather records

Advertising

Ansfelden Weather History for the Previous 24 Hours

Scroll right to see more
 ConditionsComfort  
Time TempWeatherWind HumidityBarometerVisibility
2:00 am
Fri, Jan 20
18 °FPassing clouds.7 mph78%30.64 "Hg4 mi
1:00 am18 °FPassing clouds.6 mph79%30.64 "Hg4 mi
12:00 am18 °FCold.6 mph79%30.65 "Hg4 mi
11:00 pm
Thu, Jan 19
17 °FPassing clouds.3 mph82%30.65 "Hg4 mi
10:00 pm18 °FPassing clouds.5 mph81%30.65 "Hg4 mi
9:00 pm19 °FPassing clouds.6 mph79%30.64 "Hg4 mi
8:00 pm20 °FPassing clouds.6 mph79%30.64 "Hg4 mi
7:00 pm20 °FPassing clouds.5 mph78%30.64 "Hg4 mi
6:00 pm21 °FClear.N/A77%30.63 "Hg4 mi
5:00 pm22 °FClear.5 mph74%30.61 "Hg4 mi
4:00 pm23 °FSunny.6 mph70%30.61 "Hg4 mi
3:00 pm24 °FSunny.5 mph69%30.61 "Hg4 mi
2:00 pm23 °FSunny.5 mph69%30.62 "Hg4 mi
1:00 pm22 °FSunny.5 mph73%30.63 "Hg3 mi
12:00 pm20 °FSunny.6 mph76%30.66 "Hg3 mi
11:00 am18 °FSunny.5 mph80%30.68 "Hg2 mi
10:00 am17 °FSunny.6 mph84%30.69 "Hg2 mi
9:00 am15 °FSunny.5 mph87%30.68 "Hg2 mi
8:00 am15 °FPassing clouds.6 mph89%30.67 "Hg2 mi
7:00 am15 °FClear.5 mph88%30.67 "Hg3 mi
6:00 am16 °FClear.6 mph88%30.67 "Hg3 mi
5:00 am17 °FCold.7 mph86%30.66 "Hg3 mi
4:00 am17 °FCold.6 mph86%30.66 "Hg3 mi
3:00 am18 °FCold.7 mph84%30.66 "Hg4 mi
Weather by CustomWeather, © 2017

See weather overviewHow to use our weather pages